This is the latest recevied weather packets stored in our database for station/object Dunnningn. If no packets are shown the sender has not sent any weather packets the latest 10 day(s).
| Time | Temp. | Humidity | Pressure | Rain* | Wind** | Luminosity | Snow |
|---|---|---|---|---|---|---|---|
| 1777633331 | 19.44° C | 32% | 1025.9 hPa | 0 mm | - | - | - |
| 1777631531 | 18.89° C | 33% | 1026.2 hPa | 0 mm | - | - | - |
| 1777629731 | 17.22° C | 38% | 1026.3 hPa | 0 mm | - | - | - |
| 1777627930 | 15.56° C | 35% | 1026.5 hPa | 0 mm | - | - | - |
| 1777626132 | 14.44° C | 39% | 1026.5 hPa | 0 mm | - | - | - |
| 1777624331 | 13.33° C | 36% | 1026.5 hPa | 0 mm | - | - | - |
| 1777622532 | 11.67° C | 40% | 1026.4 hPa | 0 mm | - | - | - |
| 1777620733 | 11.11° C | 38% | 1026.4 hPa | 0 mm | - | - | - |
| 1777618930 | 10° C | 43% | 1026.2 hPa | 0 mm | - | - | - |
| 1777617131 | 2.78° C | 64% | 1026.3 hPa | 0 mm | - | - | - |
| 1777615333 | 1.67° C | 67% | 1026.1 hPa | 0 mm | - | - | - |
| 1777613531 | 0.56° C | 69% | 1025.9 hPa | 0 mm | - | - | - |
| 1777611731 | 0.56° C | 71% | 1025.8 hPa | 0 mm | - | - | - |
| 1777609931 | 0.56° C | 68% | 1025.6 hPa | 0 mm | - | - | - |
| 1777608131 | 1.11° C | 64% | 1025.4 hPa | 0 mm | - | - | - |
| 1777606332 | 1.67° C | 63% | 1025.4 hPa | 0 mm | - | - | - |
| 1777604532 | 2.22° C | 60% | 1025.6 hPa | 0 mm | - | - | - |
| 1777602733 | 3.33° C | 55% | 1025.6 hPa | 0 mm | - | - | - |
| 1777600931 | 3.89° C | 53% | 1025.5 hPa | 0 mm | - | - | - |
| 1777599131 | 3.89° C | 54% | 1025.5 hPa | 0 mm | - | - | - |
| 1777597331 | 4.44° C | 52% | 1025.6 hPa | 0 mm | - | - | - |
| 1777595529 | 6.11° C | 48% | 1025.5 hPa | 0 mm | - | - | - |
| 1777593730 | 7.78° C | 40% | 1025.5 hPa | 0 mm | - | - | - |
| 1777591929 | 7.22° C | 38% | 1025.5 hPa | 0 mm | - | - | - |
| 1777590129 | 6.67° C | 47% | 1025.5 hPa | 0 mm | - | - | - |
* Rain since midnight (hover to see other rain measurements)
** Current wind speed in m/s (hover to see current wind gust speed)